Flag for Switzerland Weather past 2 weeks in Riehen, Basel-Stadt, Switzerland

Now
49 °F

Passing clouds.


Feels Like: 43 °F
Forecast: 40 / 45 °F
Wind: 15 mph from West

Location: Bale-Mulhouse

Current Time: Apr 1, 2015 at 12:56:04 AM

Latest Report: Apr 1, 2015 at 12:00 AM


Visibility: 13 mi

Pressure: 30.08 "Hg

Humidity: 58%

Dew point: 35 °F

Location of RiehenLocation

Historic Weather in Riehen — Graph

°F

Riehen temperature yesterday

Maximum temperature yesterday: 57 °F (at 3:00 PM)
Minimum temperature yesterday: 50 °F (at 12:00 AM)
Average temperature yesterday: 54 °F

Past Weeks' High & Low Weather Summary

 TemperatureHumidityPressure
High64 °F (Mar 18, 4:00 PM)99% (Mar 19, 8:00 AM)30.32 "Hg (Mar 19, 8:00 AM)
Low31 °F (Mar 28, 4:00 AM)36% (Mar 17, 3:00 PM)29.66 "Hg (Mar 25, 10:00 AM)
Average47 °F72%30.02 "Hg
* Reported Mar 16 11:00 PM — Midnight between Mar 31 and Apr 1, Riehen, Weather by CustomWeather, © 2015

Note: Actual official high and low records may vary slightly from our data, if they occured in-between our weather recording intervals... More about our weather records

Advertising

Riehen weather history for previous 24 hours

 ConditionsComfort  
Time TempWeatherWind HumidityBarometerVisibility
12:00 AM
Wed, Apr 1
49 °FPassing clouds.15 mph58%30.08 "Hg12 mi
11:00 PM
Tue, Mar 31
50 °FPassing clouds.17 mph56%30.06 "Hg12 mi
10:00 PM51 °FSprinkles. Passing clouds.18 mph55%30.05 "Hg12 mi
9:00 PM51 °FPassing clouds.15 mph61%30.04 "Hg16 mi
8:00 PM51 °FPassing clouds.15 mph60%30.01 "Hg16 mi
7:00 PM52 °FPartly sunny.21 mph64%29.98 "Hg16 mi
6:00 PM57 °FPartly sunny.23 mph57%29.92 "Hg19 mi
5:00 PM55 °FPartly sunny.26 mph69%29.90 "Hg22 mi
4:00 PM56 °FOvercast.25 mph66%29.88 "Hg11 mi
3:00 PM57 °FOvercast.20 mph62%29.89 "Hg19 mi
2:00 PM57 °FOvercast.29 mph66%29.88 "Hg19 mi
1:00 PM57 °FOvercast.29 mph66%29.86 "Hg12 mi
12:00 PM56 °FLight rain. Overcast.31 mph74%29.86 "Hg12 mi
11:00 AM56 °FLight rain. Overcast.25 mph66%29.86 "Hg22 mi
10:00 AM56 °FOvercast.21 mph64%29.84 "Hg31 mi
9:00 AM56 °FOvercast.18 mph64%29.84 "Hg31 mi
8:00 AM56 °FOvercast.23 mph67%29.86 "Hg25 mi
7:00 AM56 °FLight rain. Overcast.23 mph70%29.84 "Hg25 mi
6:00 AM57 °FLight rain. Overcast.24 mph74%29.80 "Hg19 mi
4:00 AM53 °FRain. Overcast.14 mph83%29.85 "Hg19 mi
3:00 AM52 °FOvercast.3 mph76%29.91 "Hg37 mi
2:00 AM52 °FOvercast.9 mph76%29.96 "Hg37 mi
1:00 AM51 °FOvercast.14 mph76%29.98 "Hg37 mi
12:00 AM50 °FOvercast.5 mph74%30.01 "Hg19 mi
Weather by CustomWeather, © 2015

See weather overviewHow to use our weather pages